RH
50 46 41 37 40 42 44 44 47 38 40 31 32 34 28 28 28 28 29 31 36 40 46 50 51 47 49 54 56 65 71 74 74 73 72 74 76 74 72 76 82 81 80 89
59 52 45 41 37 46 40 35 35 38 38 34 33 35 31 30 30 30 31 34 37 39 41 41 38 36 39 43 49 53 60 60 64 65 70 76 72 72 77 80 80 82 93 93
55 53 46 46 35 28 27 30 34 40 40 39 41 41 38 35 35 36 37 39 39 38 37 36 36 35 33 32 38 45 52 56 66 70 72 73 76 77 77 79 87 92 93 94
59 49 53 27 26 25 25 23 24 30 37 38 39 43 43 42 38 39 41 39 38 39 38 36 32 29 29 33 42 51 58 62 66 76 81 79 79 79 80 91 97 85 86 86
55 59 50 35 31 32 31 29 26 28 30 33 36 38 40 40 39 38 37 37 37 36 34 32 29 30 37 45 50 53 57 64 73 77 77 76 86 97 89 96 92 82 78 74
64 67 70 53 48 45 39 43 34 33 35 37 37 42 41 39 38 37 37 36 35 35 34 34 36 40 42 47 52 57 63 70 80 78 85 83 81 84 82 79 77 80 75 63
65 65 59 44 43 40 43 37 36 38 39 39 40 40 40 39 37 36 35 35 35 35 38 40 40 41 46 52 59 67 74 77 78 81 84 84 81 78 79 76 71 62 49 43
57 60 52 37 38 36 34 37 36 41 42 41 39 37 36 36 35 35 36 37 40 41 42 42 45 50 56 62 69 72 73 74 78 81 78 76 73 71 70 61 47 41 39 37
40 40 34 31 30 33 35 36 36 34 34 33 34 34 34 34 35 39 43 46 47 47 48 52 58 62 64 66 69 71 72 72 70 69 66 58 49 45 41 41 39 36 30 26
33 31 30 29 28 27 28 29 30 32 33 35 33 34 37 42 46 49 51 52 53 54 58 64 68 70 69 70 71 70 64 58 51 46 42 37 34 32 31 29 29 29 30 30
34 33 32 32 30 29 29 30 32 34 37 38 39 43 48 53 54 56 58 61 63 66 72 74 70 67 65 64 60 54 49 46 41 36 30 27 26 26 27 28 32 34 38 44
37 33 33 34 33 32 32 36 39 41 44 46 50 54 58 59 62 66 70 71 71 74 71 67 66 66 64 59 52 44 38 34 29 24 23 25 26 26 31 34 39 46 53 61
31 35 37 38 37 38 39 41 44 47 49 54 58 59 65 70 75 76 73 73 74 71 69 69 65 61 55 48 38 33 32 30 27 27 30 32 35 38 36 33 45 49 58 63
38 41 45 41 42 43 45 46 49 53 58 60 64 72 77 79 78 74 74 76 73 71 67 61 56 51 46 42 38 37 35 32 31 31 30 30 30 31 33 34 34 29 34 37
47 48 48 48 50 52 51 53 57 62 65 70 77 81 82 79 76 75 75 74 70 63 58 56 53 50 45 40 36 30 27 26 25 25 25 25 25 24 24 23 24 24 20 17
57 59 60 60 61 59 58 59 62 69 75 83 85 84 82 79 78 77 71 67 62 59 57 54 49 43 40 34 28 25 24 24 24 24 23 23 23 25 25 25 26 28 27 26
68 73 71 70 67 65 65 67 72 81 88 89 87 84 79 76 74 72 64 62 59 56 54 48 42 38 32 27 25 24 24 22 21 21 23 25 27 26 26 27 29 30 32 33
75 73 78 74 72 73 78 83 88 91 91 88 81 78 79 75 70 63 60 59 59 56 48 42 38 32 29 28 26 23 21 21 22 23 24 25 25 25 27 31 33 35 36 38
72 74 81 81 83 86 88 89 92 91 84 81 82 79 73 67 65 64 63 61 54 46 44 41 37 33 30 25 22 23 24 24 23 24 24 24 25 28 29 32 34 37 41 45
89 96 96 88 87 89 93 91 84 83 83 79 75 70 69 69 67 65 61 56 51 48 46 41 37 31 25 24 25 26 26 25 24 24 25 27 28 29 32 34 37 40 44 46
92 93 96 95 94 89 87 86 83 80 77 74 72 72 70 68 65 61 56 53 49 45 42 40 33 27 26 27 27 27 26 25 25 27 28 27 29 31 35 37 40 41 43 47
98 98 97 95 93 90 86 84 81 78 76 75 74 73 69 63 59 57 54 52 51 49 43 34 29 30 30 30 29 27 27 27 28 29 28 31 32 35 39 40 42 45 49 51
96 96 95 92 90 87 87 84 83 82 81 79 75 68 63 61 60 60 59 58 55 49 41 36 35 34 34 32 30 29 28 29 29 28 32 35 38 41 42 45 49 52 55 58
97 92 91 91 90 91 89 88 88 86 81 76 70 67 67 68 68 67 65 61 55 48 45 41 39 38 36 33 32 31 30 31 29 32 36 38 43 45 47 50 53 58 62 66
92 92 94 95 96 93 92 91 86 81 78 75 74 74 72 69 67 64 60 54 46 45 42 41 39 38 36 35 34 32 32 32 31 36 38 42 44 45 48 51 54 58 61 65
97 96 97 97 96 91 88 84 83 82 78 77 74 71 69 70 69 64 59 56 50 44 41 39 39 38 37 37 35 34 33 32 35 38 41 42 42 44 47 49 54 56 60 62
97 97 92 87 87 87 88 89 86 82 80 78 78 75 73 70 65 59 52 47 44 41 39 38 38 40 40 38 35 34 33 36 38 40 42 44 45 46 47 50 52 55 57 59